Location: Newark
(42.7133°N, 87.7910°W)
Time: 01:26:22
(UTC+00:00)

Tiros 1 - Pass Details

Date: 22 September 2019
Orbit: 630 x 664 km, 48.4° (Epoch: 13 October)

Event Time Altitude Azimuth Distance (km) Brightness Sun altitude
Rises 21:33:40 0° 290° (WNW) 2,958 11.2 23.4°
Reaches altitude 10° 21:36:07 10° 296° (WNW) 2,041 10.4 23.0°
Maximum altitude 21:40:38 45° 10° (N) 871 7.8 22.2°
Drops below altitude 10° 21:45:06 10° 84° (E) 2,018 9.2 21.5°
Sets 21:47:29 0° 90° (E) 2,921 10.0 21.0°
